{"data":{"norad_id":45189,"epoch":"2026-09-19T13:21:07.020864Z","epoch_age_seconds":95744,"freshness":"FRESH","line1":"1 45189U 20012M   26262.55633126  .00045972  00000+0  10127-2 0  9990","line2":"2 45189  53.1501 211.5328 0002518  90.3323 269.7972 15.43508188361951","mean_motion":15.43508188,"eccentricity":0.0002518,"inclination_deg":53.1501,"raan_deg":211.5328,"arg_perigee_deg":90.3323,"mean_anomaly_deg":269.7972,"bstar":0.0010127,"rev_number":36195,"period_min":93.29396573308,"perigee_km":434.04925603025,"apogee_km":437.48073707571,"semimajor_km":6813.901996553,"source":"CELESTRAK","updated_at":"2026-09-20T09:00:38.226425Z"}}